Location: Oberkirch
(48.5323°N, 8.0787°E)
Time: 07:01:29
(UTC+00:00)

Cosmos 1624 Rocket - Pass Details

Date: 08 November 2025
Orbit: 752 x 779 km, 74.0° (Epoch: 16 December)

Event Time Altitude Azimuth Distance (km) Brightness Sun altitude
Rises 05:32:34 0° 196° (SSW) 3,198 7.2 -9.0°
Reaches altitude 10° 05:34:55 10° 194° (SSW) 2,275 6.5 -8.6°
Maximum altitude 05:40:04 75° 110° (ESE) 782 4.3 -7.8°
Drops below altitude 10° 05:45:14 10° 26° (NNE) 2,287 6.6 -7.0°
Sets 05:47:37 0° 25° (NNE) 3,216 7.3 -6.6°
